Location: Bottens
(46.6171°N, 6.6605°E)
Time: 18:36:41
(UTC+00:00)

Cosmos 2151 - Pass Details

Date: 20 June 2021
Orbit: 582 x 600 km, 82.5° (Epoch: 30 July)

Event Time Altitude Azimuth Distance (km) Brightness Sun altitude
Exits shadow 01:44:54 22° 193° (SSW) 1,291 4.1 -14.0°
Maximum altitude 01:47:33 81° 278° (W) 599 2.9 -13.8°
Drops below altitude 10° 01:51:47 10° 7° (N) 1,913 6.7 -13.4°
Sets 01:54:00 0° 9° (N) 2,817 7.8 -13.2°
